This is the latest recevied weather packets stored in our database for station/object IA5FYI-13. If no packets are shown the sender has not sent any weather packets the latest 10 day(s).
| Time | Temp. | Humidity | Pressure | Rain* | Wind** | Luminosity | Snow |
|---|---|---|---|---|---|---|---|
| 1777725022 | 20° C | 37% | 1021.7 hPa | 0 mm | - | - | - |
| 1777724708 | 20° C | 37% | 1021.7 hPa | 0 mm | - | - | - |
| 1777724412 | 20° C | 36% | 1021.7 hPa | 0 mm | - | - | - |
| 1777724112 | 21.11° C | 37% | 1022 hPa | 0 mm | - | - | - |
| 1777723812 | 21.11° C | 37% | 1022 hPa | 0 mm | - | - | - |
| 1777723509 | 21.11° C | 37% | 1021.7 hPa | 0 mm | - | - | - |
| 1777723231 | 20° C | 39% | 1022 hPa | 0 mm | - | - | - |
| 1777722909 | 20° C | 36% | 1022 hPa | 0 mm | - | - | - |
| 1777722613 | 21.11° C | 35% | 1022 hPa | 0 mm | - | - | - |
| 1777722312 | 20° C | 37% | 1022.4 hPa | 0 mm | - | - | - |
| 1777722013 | 21.11° C | 36% | 1022.4 hPa | 0 mm | - | - | - |
| 1777721708 | 21.11° C | 35% | 1022.4 hPa | 0 mm | - | - | - |
| 1777721422 | 20° C | 34% | 1022 hPa | 0 mm | - | - | - |
| 1777721109 | 20° C | 35% | 1022.4 hPa | 0 mm | - | - | - |
| 1777720813 | 20° C | 34% | 1022.4 hPa | 0 mm | - | - | - |
| 1777720512 | 20° C | 33% | 1022.4 hPa | 0 mm | - | - | - |
| 1777720213 | 20° C | 31% | 1022.7 hPa | 0 mm | - | - | - |
| 1777719909 | 20° C | 32% | 1022.7 hPa | 0 mm | - | - | - |
| 1777719631 | 21.11° C | 33% | 1022.7 hPa | 0 mm | - | - | - |
| 1777719309 | 20° C | 33% | 1022.7 hPa | 0 mm | - | - | - |
| 1777719012 | 20° C | 33% | 1022.7 hPa | 0 mm | - | - | - |
| 1777718712 | 20° C | 36% | 1023 hPa | 0 mm | - | - | - |
| 1777718413 | 20° C | 35% | 1023 hPa | 0 mm | - | - | - |
| 1777718109 | 20° C | 33% | 1023.4 hPa | 0 mm | - | - | - |
| 1777717823 | 20° C | 34% | 1023.4 hPa | 0 mm | - | - | - |
* Rain latest hour (hover to see other rain measurements)
** Current wind speed in m/s (hover to see current wind gust speed)